Location: St. Louis
(38.6270°N, 90.1994°W)
Time: 07:36:18
(UTC-06:00)

Transit 2A - Pass Details

Date: 05 December 2021
Orbit: 591 x 967 km, 66.7° (Epoch: 20 January)

Event Time Altitude Azimuth Distance (km) Brightness Sun altitude
Rises 07:30:13 0° 339° (NNW) 3,660 9.0 3.6°
Reaches altitude 10° 07:33:13 10° 351° (N) 2,711 8.5 4.1°
Maximum altitude 07:38:37 28° 49° (NE) 1,708 8.1 5.0°
Drops below altitude 10° 07:43:49 10° 106° (ESE) 2,609 10.5 5.8°
Sets 07:46:38 0° 118° (ESE) 3,500 11.9 6.3°
